Weather History for KNYC - May, 2013

Change the Weather History Date:

Monday, May 27, 2013

  Actual Average Record
Temperature  
Mean Temperature 62 °F 66 °F  
Max Temperature 73 °F 74 °F 96 °F (1880)
Min Temperature 51 °F 57 °F 41 °F (1961)
Degree Days  
Heating Degree Days 3 3  
Month to date heating degree days 135 130  
Since 1 July heating degree days 4625 4723  
Cooling Degree Days 0 3  
Month to date cooling degree days 38 44  
Year to date cooling degree days 40 56  
Growing Degree Days 12 (Base 50)    
Moisture  
Dew Point 36 °F    
Average Humidity 39    
Maximum Humidity 54    
Minimum Humidity 23    
Precipitation  
Precipitation 0.00 in 0.14 in 2.62 in (1906)
Month to date precipitation 7.48 3.59  
Year to date precipitation 18.70 19.19  
Snow  
Snow 0.00 in 0.00 in 0.00 in (2002)
Month to date snowfall 0.0 0.0  
Since 1 July snowfall 26.1 25.8  
Snow Depth 0.00 in    
Sea Level Pressure  
Sea Level Pressure 30.19 in    
Wind  
Wind Speed 4 mph (West)    
Max Wind Speed 12 mph    
Max Gust Speed 20 mph    
Visibility 10 miles    
Events      
T = Trace of Precipitation, MM = Missing Value Source: NWS Daily Summary

Daily Weather History Graph

Daily Weather History Graph

Search for Another Location

Airport or City:

Trip Planner

Search our weather history database for the weather conditions in past years. The results will help you decide how hot, cold, wet, or windy it might be!

Date:

Astronomy

May. 27, 2013 Rise Set
Actual Time 5:29 AM EDT 8:17 PM EDT
Civil Twilight 4:56 AM EDT 8:49 PM EDT
Nautical Twilight 4:16 AM EDT 9:30 PM EDT
Astronomical Twilight 3:29 AM EDT 10:17 PM EDT
Moon 10:54 PM EDT (5/27) 8:03 AM EDT (5/27)
Length of Visible Light 15h 52m
Length of Day
14h 48m
Waning Gibbous, 91% of the Moon is Illuminated
May 27
Waning Gibbous
May 31
Last Quarter
Jun 8
New
Jun 16
First Quarter
Jun 23
Full

Hourly Weather History & Observations

Time (EDT) Temp. Dew Point Humidity Pressure Visibility Wind Dir Wind Speed Gust Speed Precip Events Conditions
12:51 AM 55.0 °F 32.0 °F 42% 30.21 in 10.0 mi West 4.6 mph - N/A   Clear
1:51 AM 54.0 °F 35.1 °F 49% 30.21 in 10.0 mi WNW 4.6 mph - N/A   Clear
2:51 AM 52.0 °F 35.1 °F 53% 30.21 in 10.0 mi Calm Calm - N/A   Clear
3:51 AM 52.0 °F 32.0 °F 47% 30.21 in 10.0 mi WSW 3.5 mph - N/A   Clear
4:51 AM 52.0 °F 33.1 °F 49% 30.22 in 10.0 mi Variable 3.5 mph - N/A   Clear
5:51 AM 51.1 °F 35.1 °F 54% 30.23 in 10.0 mi Calm Calm - N/A   Clear
6:51 AM 53.1 °F 34.0 °F 48% 30.24 in 10.0 mi Variable 3.5 mph - N/A   Clear
7:51 AM 55.0 °F 36.0 °F 49% 30.24 in 10.0 mi Variable 4.6 mph - N/A   Clear
8:51 AM 57.0 °F 36.0 °F 45% 30.25 in 10.0 mi Variable 4.6 mph - N/A   Clear
9:51 AM 61.0 °F 36.0 °F 39% 30.24 in 10.0 mi Variable 3.5 mph - N/A   Clear
10:51 AM 64.9 °F 35.1 °F 33% 30.23 in 10.0 mi Calm Calm - N/A   Clear
11:51 AM 69.1 °F 36.0 °F 30% 30.22 in 10.0 mi Variable 5.8 mph - N/A   Clear
12:51 PM 70.0 °F 35.1 °F 28% 30.19 in 10.0 mi Calm Calm - N/A   Clear
1:51 PM 71.1 °F 34.0 °F 26% 30.17 in 10.0 mi Variable 3.5 mph - N/A   Clear
2:51 PM 73.0 °F 34.0 °F 24% 30.15 in 10.0 mi Variable 5.8 mph - N/A   Clear
3:51 PM 73.0 °F 36.0 °F 26% 30.13 in 10.0 mi North - - N/A   Clear
4:51 PM 73.0 °F 39.0 °F 29% 30.12 in 10.0 mi Variable 5.8 mph - N/A   Clear
5:51 PM 72.0 °F 37.9 °F 29% 30.12 in 10.0 mi WSW 8.1 mph - N/A   Clear
6:51 PM 71.1 °F 39.0 °F 31% 30.12 in 10.0 mi Variable 5.8 mph - N/A   Clear
7:51 PM 70.0 °F 35.1 °F 28% 30.13 in 10.0 mi WSW 9.2 mph 20.7 mph N/A   Clear
8:51 PM 66.9 °F 37.9 °F 34% 30.14 in 10.0 mi North - - N/A   Clear
9:51 PM 66.0 °F 39.0 °F 37% 30.15 in 10.0 mi Calm Calm - N/A   Clear
10:51 PM 64.9 °F 39.0 °F 39% 30.16 in 10.0 mi Variable 4.6 mph - N/A   Clear
11:51 PM 64.0 °F 39.0 °F 40% 30.17 in 10.0 mi Variable 4.6 mph - N/A   Clear